| time (UTC) | temp F | wind direction | speed MPH | gust MPH | rain 1hr in | rain 24hr in | rain mn in | humidity % | barometer mb |
| 20260510023050 | 79 | 75 | 0.0 | 3.0 | 0.00 | 0.00 | 0.00 | 62 | 1008.5 |
| 20260510021546 | 80 | 97 | 0.0 | 3.0 | 0.00 | 0.00 | 0.00 | 61 | 1008.6 |
| 20260510020046 | 81 | 79 | 1.0 | 5.0 | 0.00 | 0.00 | 0.00 | 60 | 1008.4 |
| 20260510014545 | 81 | 105 | 0.0 | 4.0 | 0.00 | 0.00 | 0.00 | 57 | 1008.2 |
| 20260510013042 | 82 | 82 | 0.0 | 4.0 | 0.00 | 0.00 | 0.00 | 55 | 1007.9 |
| 20260510011542 | 83 | 57 | 1.0 | 4.0 | 0.00 | 0.00 | 0.00 | 52 | 1007.7 |
| 20260510010043 | 84 | 86 | 0.0 | 4.0 | 0.00 | 0.00 | 0.00 | 49 | 1007.6 |
| 20260510004540 | 84 | 77 | 0.0 | 3.0 | 0.00 | 0.00 | 0.00 | 48 | 1007.6 |
| 20260510003040 | 85 | 89 | 1.0 | 5.0 | 0.00 | 0.00 | 0.00 | 46 | 1007.5 |
| 20260510001539 | 85 | 43 | 0.0 | 2.0 | 0.00 | 0.00 | 0.00 | 47 | 1007.5 |
| 20260510000039 | 86 | 6 | 1.0 | 4.0 | 0.00 | 0.00 | 0.00 | 47 | 1007.4 |
| 20260509234538 | 87 | 60 | 1.0 | 5.0 | 0.00 | 0.00 | 0.00 | 46 | 1007.4 |
| 20260509233038 | 88 | 53 | 0.0 | 5.0 | 0.00 | 0.00 | 0.00 | 47 | 1007.5 |
| 20260509231539 | 88 | 81 | 0.0 | 5.0 | 0.00 | 0.00 | 0.00 | 46 | 1007.5 |
| 20260509230037 | 88 | 71 | 1.0 | 6.0 | 0.00 | 0.00 | 0.00 | 45 | 1007.5 |
| 20260509224539 | 89 | 83 | 0.0 | 6.0 | 0.00 | 0.00 | 0.00 | 44 | 1007.4 |
| 20260509223035 | 88 | 105 | 0.0 | 7.0 | 0.00 | 0.00 | 0.00 | 44 | 1007.3 |
| 20260509221534 | 89 | 94 | 0.0 | 6.0 | 0.00 | 0.00 | 0.00 | 43 | 1007.3 |
| 20260509220034 | 89 | 70 | 0.0 | 3.0 | 0.00 | 0.00 | 0.00 | 44 | 1007.4 |
| 20260509214532 | 89 | 70 | 1.0 | 6.0 | 0.00 | 0.00 | 0.00 | 44 | 1007.5 |
| 20260509213031 | 90 | 77 | 0.0 | 3.0 | 0.00 | 0.00 | 0.00 | 44 | 1007.7 |
| 20260509211539 | 89 | 61 | 0.0 | 7.0 | 0.00 | 0.00 | 0.00 | 43 | 1008.0 |
| 20260509210027 | 88 | 352 | 0.0 | 6.0 | 0.00 | 0.00 | 0.00 | 47 | 1008.1 |
| 20260509204526 | 88 | 86 | 0.0 | 6.0 | 0.00 | 0.00 | 0.00 | 52 | 1008.3 |
| 20260509203029 | 88 | 61 | 1.0 | 7.0 | 0.00 | 0.00 | 0.00 | 53 | 1008.7 |
| 20260509201525 | 88 | 313 | 0.0 | 5.0 | 0.00 | 0.00 | 0.00 | 55 | 1008.8 |
| 20260509200024 | 88 | 75 | 1.0 | 7.0 | 0.00 | 0.00 | 0.00 | 55 | 1008.9 |
| 20260509194525 | 89 | 349 | 0.0 | 4.0 | 0.00 | 0.00 | 0.00 | 56 | 1009.1 |
| 20260509193021 | 89 | 184 | 0.0 | 3.0 | 0.00 | 0.00 | 0.00 | 52 | 1009.1 |
| 20260509191521 | 87 | 302 | 0.0 | 2.0 | 0.00 | 0.00 | 0.00 | 56 | 1009.2 |
| 20260509190019 | 88 | 32 | 0.0 | 4.0 | 0.00 | 0.00 | 0.00 | 55 | 1009.4 |
| 20260509184526 | 87 | 315 | 0.0 | 3.0 | 0.00 | 0.00 | 0.00 | 56 | 1009.5 |
| 20260509183019 | 87 | 289 | 0.0 | 2.0 | 0.00 | 0.00 | 0.00 | 57 | 1009.4 |
| 20260509181513 | 87 | 271 | 0.0 | 3.0 | 0.00 | 0.00 | 0.00 | 57 | 1009.7 |
| 20260509180009 | 85 | 11 | 0.0 | 6.0 | 0.00 | 0.00 | 0.00 | 60 | 1009.7 |
| 20260509174511 | 84 | 115 | 0.0 | 5.0 | 0.00 | 0.00 | 0.00 | 60 | 1009.9 |
| 20260509173007 | 85 | 53 | 0.0 | 4.0 | 0.00 | 0.00 | 0.00 | 60 | 1010.1 |
| 20260509171504 | 84 | 339 | 0.0 | 3.0 | 0.00 | 0.00 | 0.00 | 62 | 1010.2 |
| 20260509170002 | 83 | 309 | 0.0 | 4.0 | 0.00 | 0.00 | 0.00 | 64 | 1010.3 |
| 20260509164607 | 82 | 60 | 1.0 | 5.0 | 0.00 | 0.00 | 0.00 | 65 | 1010.2 |
| 20260509163055 | 81 | 287 | 0.0 | 3.0 | 0.00 | 0.00 | 0.00 | 66 | 1010.4 |
| 20260509161558 | 82 | 308 | 0.0 | 5.0 | 0.00 | 0.00 | 0.00 | 66 | 1010.2 |
| 20260509160051 | 82 | 308 | 0.0 | 6.0 | 0.00 | 0.00 | 0.00 | 66 | 1010.2 |
| 20260509154547 | 80 | 21 | 0.0 | 5.0 | 0.00 | 0.00 | 0.00 | 67 | 1010.0 |
| 20260509153048 | 80 | 308 | 0.0 | 5.0 | 0.00 | 0.00 | 0.00 | 67 | 1010.0 |
| 20260509151545 | 80 | 301 | 0.0 | 3.0 | 0.00 | 0.00 | 0.00 | 68 | 1009.9 |
| 20260509150043 | 80 | 293 | 0.0 | 2.0 | 0.00 | 0.00 | 0.00 | 69 | 1010.0 |
| 20260509144542 | 80 | 307 | 0.0 | 1.0 | 0.00 | 0.00 | 0.00 | 68 | 1010.1 |
| 20260509134539 | 77 | 254 | 0.0 | 1.0 | 0.00 | 0.00 | 0.00 | 76 | 1010.0 |
| 20260509103053 | 70 | 113 | 0.0 | 0.0 | 0.00 | 0.00 | 0.00 | 91 | 1008.7 |
| 20260509101553 | 70 | 112 | 0.0 | 0.0 | 0.00 | 0.00 | 0.00 | 91 | 1008.6 |
| 20260509100052 | 70 | 112 | 0.0 | 0.0 | 0.00 | 0.00 | 0.00 | 91 | 1008.3 |
| 20260509094551 | 69 | 262 | 0.0 | 2.0 | 0.00 | 0.00 | 0.00 | 91 | 1008.1 |
| 20260509084526 | 69 | 166 | 0.0 | 7.0 | 0.00 | 0.00 | 0.00 | 90 | 1007.3 |
| 20260509053041 | 71 | 139 | 0.0 | 0.0 | 0.00 | 0.00 | 0.00 | 84 | 1010.8 |
| 20260509051537 | 72 | 108 | 0.0 | 1.0 | 0.00 | 0.00 | 0.00 | 83 | 1009.9 |
| 20260509050053 | 72 | 117 | 1.0 | 3.0 | 0.00 | 0.00 | 0.00 | 82 | 1009.8 |
| 20260509044544 | 72 | 115 | 0.0 | 5.0 | 0.00 | 0.00 | 0.00 | 81 | 1009.5 |
| 20260509043035 | 73 | 128 | 1.0 | 3.0 | 0.00 | 0.00 | 0.00 | 81 | 1009.8 |
| 20260509041534 | 73 | 108 | 0.0 | 0.0 | 0.00 | 0.00 | 0.00 | 80 | 1010.3 |
| 20260509040032 | 72 | 108 | 0.0 | 0.0 | 0.00 | 0.00 | 0.00 | 80 | 1010.4 |
| 20260509034531 | 72 | 108 | 0.0 | 0.0 | 0.00 | 0.00 | 0.00 | 80 | 1010.0 |
| 20260509033032 | 72 | 108 | 0.0 | 0.0 | 0.00 | 0.00 | 0.00 | 80 | 1009.7 |
| 20260509031531 | 72 | 122 | 0.0 | 0.0 | 0.00 | 0.00 | 0.00 | 80 | 1009.8 |
| 20260509030037 | 72 | 180 | 0.0 | 0.0 | 0.00 | 0.00 | 0.00 | 79 | 1009.4 |
| 20260509024529 | 72 | 142 | 0.0 | 2.0 | 0.00 | 0.00 | 0.00 | 79 | 1009.2 |